Temperature
17 16 16 16 16 16 16 16 16 16 16 16 16 16 16 16 16 17 17 17 17 17 17 17 17 17 17 17 17 17 17 16 16 16 16 16 16 16 16 16 16 16 16
16 16 16 16 16 15 15 15 15 15 16 16 16 16 16 16 16 16 16 16 17 17 17 17 17 17 17 16 16 16 16 16 16 16 16 16 16 16 16 16 16 16 16
16 16 15 15 15 15 15 15 15 15 15 15 15 15 15 15 16 16 16 16 16 16 17 16 16 16 16 16 16 16 16 16 16 16 16 16 16 16 16 16 16 16 16
16 16 15 15 15 15 15 15 15 15 15 15 15 15 15 15 15 15 16 16 16 16 16 16 16 16 16 16 16 16 16 16 16 16 16 16 16 16 16 16 16 16 16
16 15 15 15 15 14 14 14 14 14 15 14 15 15 15 15 15 15 15 15 16 16 16 16 16 16 16 16 16 16 16 16 16 16 16 16 16 16 16 16 16 16 16
15 15 14 14 14 14 14 14 13 14 14 14 15 15 15 15 15 15 15 15 15 15 16 16 16 16 16 16 16 16 16 16 16 16 16 16 16 16 16 16 16 16 16
15 15 14 14 14 14 13 13 13 14 14 14 15 15 15 15 15 14 15 15 15 15 15 15 15 15 15 15 15 15 16 16 15 15 16 16 16 16 16 16 16 16 16
15 14 14 14 14 13 13 13 13 13 14 13 14 16 16 16 14 15 14 14 15 15 15 15 15 15 15 15 15 15 15 15 15 15 15 15 16 16 16 16 16 16 16
14 14 14 14 13 13 13 13 12 12 14 13 13 15 16 17 16 15 14 14 14 14 15 14 15 15 15 15 15 15 15 15 15 15 15 15 15 15 16 16 16 16 16
14 14 14 14 13 13 13 13 13 12 13 14 13 13 13 14 15 16 15 14 14 14 14 14 14 14 14 15 15 15 15 15 15 15 15 15 15 15 15 16 16 16 16
14 14 14 13 13 13 13 13 12 12 12 13 13 13 13 13 14 15 16 15 15 14 14 14 14 14 14 14 14 14 15 15 15 15 15 15 15 15 15 15 15 15 15
14 14 14 13 13 13 13 13 12 12 12 12 12 13 13 14 14 14 15 15 15 15 14 14 14 14 14 14 14 14 14 15 15 15 15 15 15 15 15 15 15 15 15
14 14 14 13 13 13 13 12 12 12 12 12 12 12 12 13 13 13 14 14 14 14 14 14 14 13 13 13 13 14 14 14 14 14 15 15 15 15 15 15 15 15 15
14 14 14 13 13 13 13 13 12 12 12 12 12 12 12 12 12 12 13 13 14 15 15 14 13 13 13 13 13 13 13 13 14 14 14 14 14 14 15 15 15 15 15
14 14 14 13 13 13 13 13 12 12 12 12 12 12 12 12 12 12 12 12 13 14 15 14 13 13 12 12 12 12 12 12 13 13 14 14 14 14 14 14 14 14 14
15 14 14 13 13 13 13 13 12 12 12 12 12 12 12 12 12 11 12 12 12 12 13 14 13 13 12 12 12 12 12 12 13 13 13 13 13 14 14 14 14 14 14
15 15 14 14 13 13 13 13 12 12 12 12 12 11 11 11 12 12 12 12 12 12 12 13 13 12 11 11 11 11 11 12 12 12 13 13 13 13 13 13 13 14 14
15 15 14 14 14 13 13 13 13 12 12 12 12 12 12 12 11 12 11 12 12 11 11 12 12 12 11 11 11 11 11 12 12 12 12 12 13 13 13 13 13 13 13
15 15 15 15 14 14 14 13 13 13 12 12 12 12 12 12 12 12 11 12 12 12 11 11 12 12 11 11 11 11 11 11 12 12 12 12 12 12 13 13 13 13 13
16 15 15 15 15 14 14 14 13 13 13 13 12 12 12 12 12 12 12 11 11 11 11 11 12 12 12 11 11 11 12 12 11 12 12 12 12 12 12 12 13 13 13
16 16 15 15 15 15 14 14 14 13 13 13 13 13 12 12 12 12 12 12 11 11 11 12 12 12 12 12 12 12 12 11 12 11 11 12 12 12 12 12 12 12 12
16 16 15 15 15 15 15 15 15 14 13 13 13 13 13 13 13 13 13 12 12 11 11 11 12 12 11 11 11 11 11 11 11 12 11 11 12 12 12 12 12 12 12
16 16 16 15 15 15 15 15 15 14 14 13 13 13 13 13 12 12 12 12 12 12 12 11 11 11 11 11 10 10 10 10 10 11 11 11 11 11 11 12 11 11 11
16 16 16 15 15 15 15 15 15 14 14 14 13 13 13 13 12 12 12 12 12 11 11 11 11 11 11 10 10 10 10 10 10 10 10 10 11 11 11 11 11 11 11
16 16 15 15 15 15 15 15 15 14 14 14 13 13 13 13 13 12 12 12 11 11 11 11 11 11 11 11 10 10 10 10 10 11 11 10 11 11 11 11 11 11 11
16 15 15 15 15 15 15 15 14 14 13 13 13 13 13 13 13 12 12 12 11 11 11 11 11 11 11 11 10 10 9 10 10 11 11 10 10 11 11 11 11 11 11
Wind_Speed
2 2 1 1 1 1 1 1 1 1 3 3 3 3 4 4 4 5 3 5 4 5 8 11 12 13 13 13 13 13 13 13 13 13 13 13 13 13 12 11 11 11 11
2 2 2 1 1 2 3 2 2 2 2 2 3 2 4 4 3 4 5 4 7 6 7 9 12 14 14 14 14 14 15 14 14 15 15 14 14 14 13 12 12 12 11
3 2 2 1 2 2 1 1 1 1 2 2 2 2 3 3 4 4 5 5 5 9 9 9 10 13 14 15 14 15 15 16 16 16 16 16 16 15 15 14 13 13 13
3 2 2 2 2 1 1 1 1 2 2 2 2 2 2 2 4 4 5 5 6 6 8 10 10 12 14 15 16 16 16 16 17 17 17 17 17 17 17 16 15 15 14
4 2 2 3 1 1 1 2 2 3 2 3 3 2 2 2 2 3 4 5 5 6 6 7 10 10 12 14 16 17 17 17 17 17 18 18 19 19 19 19 18 17 16
5 3 3 3 1 1 1 2 2 2 3 3 4 2 2 1 2 1 3 3 3 4 5 4 7 10 13 13 14 15 17 18 18 19 19 20 20 20 21 21 20 20 19
5 2 2 3 1 2 2 2 1 0 2 3 3 2 2 2 1 1 2 3 2 2 2 3 4 5 7 12 12 12 14 17 18 20 20 20 21 21 22 22 22 22 21
6 4 2 2 2 2 2 2 2 2 2 2 4 3 2 4 2 2 1 2 3 2 1 0 0 2 4 5 7 10 11 13 17 18 19 20 21 21 23 23 23 23 23
6 4 4 2 2 1 2 0 1 2 2 2 3 4 3 1 1 3 1 2 3 3 2 2 1 1 2 3 3 5 6 9 11 14 16 19 21 23 24 24 24 24 25
7 6 5 4 2 1 1 2 1 1 2 2 1 2 3 4 4 1 3 2 1 1 3 3 2 1 1 1 1 2 1 3 7 9 12 16 20 22 23 24 25 25 26
7 6 6 5 4 2 2 1 1 1 1 2 2 1 1 1 4 5 2 2 2 1 1 2 2 2 2 2 1 4 4 3 4 7 9 12 15 19 21 22 24 25 25
6 7 6 5 5 3 3 3 2 2 1 1 2 2 2 2 3 3 4 4 4 2 2 2 3 2 2 3 3 7 5 5 4 5 7 9 11 13 17 20 21 21 23
6 7 6 6 5 4 4 4 4 2 2 2 3 2 2 3 3 4 5 5 5 4 2 4 2 3 4 4 2 5 1 3 5 5 5 7 9 10 13 15 18 19 19
5 6 7 7 6 6 5 5 5 4 3 4 3 3 4 3 3 4 4 6 6 5 3 2 3 3 4 5 3 7 5 0 4 5 5 6 8 9 11 13 15 18 20
6 7 7 7 7 6 6 5 5 4 4 5 5 5 5 3 4 4 4 5 6 7 6 2 3 2 4 6 4 8 8 3 5 7 7 7 7 9 10 11 13 15 18
7 8 8 8 7 7 7 7 6 6 6 6 5 5 5 5 4 5 5 5 6 7 8 6 5 6 6 9 6 8 10 8 12 11 10 9 9 10 11 12 13 14 16
9 9 9 8 8 8 8 7 7 6 7 7 7 7 7 7 6 6 6 6 7 7 9 9 8 7 7 9 9 10 11 11 11 13 11 11 12 12 12 13 13 14 15
10 10 9 9 9 9 9 9 9 8 8 8 8 8 8 7 8 8 7 8 7 7 9 11 10 9 9 9 9 10 11 12 12 9 11 12 14 15 15 16 16 16 16
10 10 10 10 10 10 10 10 9 9 9 9 9 9 9 9 9 8 8 9 8 8 8 10 11 9 9 9 9 10 11 10 13 13 13 17 18 17 17 17 18 18 18
11 11 11 11 11 11 11 10 10 10 10 10 10 10 10 11 11 10 9 10 9 10 10 10 11 10 9 9 8 10 10 9 9 11 11 11 14 17 19 19 19 19 20
12 11 11 11 11 11 11 11 10 11 11 11 11 12 12 11 10 10 10 10 9 10 10 10 10 10 9 8 9 9 10 9 10 10 10 10 11 12 15 20 23 22 20
11 11 12 12 12 11 9 9 11 11 11 12 12 12 12 12 14 15 15 14 13 13 12 12 11 11 11 10 9 9 10 11 11 8 9 11 10 11 11 14 13 16 18
11 11 12 12 13 11 10 12 13 12 13 13 13 13 12 12 12 13 15 18 18 19 18 15 15 15 13 11 11 12 11 12 12 11 10 12 12 12 12 14 11 13 16
10 11 12 12 12 12 12 14 13 14 14 15 15 15 15 14 14 13 14 15 15 16 17 17 16 16 15 12 11 12 13 13 14 13 12 14 13 13 13 13 14 17 19
10 11 11 12 12 12 12 14 13 12 13 16 16 16 16 16 15 13 15 16 17 16 16 19 19 17 16 14 12 12 13 13 14 12 11 12 13 13 13 13 14 19 21
10 10 11 11 12 13 11 13 13 11 13 14 14 15 17 18 16 15 16 17 18 17 15 13 15 17 18 18 18 16 15 14 14 14 11 11 12 12 13 12 12 11 14
Wind_Direction
149 125 89 33 342 350 250 271 281 277 272 258 258 263 277 272 272 272 224 158 209 230 222 212 209 212 213 211 209 208 207 203 197 192 190 187 185 183 182 182 180 178 176
125 124 126 80 37 9 14 339 338 294 287 295 274 278 278 283 271 276 273 211 199 216 223 218 214 212 214 215 215 216 213 212 206 200 198 196 193 191 190 189 188 187 185
125 121 107 108 49 36 41 346 327 298 284 277 279 288 274 279 284 277 277 276 237 207 211 219 220 215 212 215 218 221 220 217 213 209 206 203 200 198 197 195 194 192 191
126 130 105 81 58 13 1 11 315 314 331 307 300 300 292 267 264 269 265 259 268 254 212 206 215 216 215 216 217 218 221 221 218 216 213 210 208 205 203 201 200 199 198
132 127 89 76 68 26 5 337 30 330 335 331 298 269 287 275 279 272 280 272 263 260 253 196 204 214 218 221 220 219 218 221 223 224 221 218 215 212 209 207 205 204 204
140 132 115 97 37 51 39 35 21 359 326 323 307 323 296 313 294 320 286 277 271 264 256 247 221 215 213 220 224 221 218 222 223 227 228 224 220 217 215 212 210 208 208
145 150 121 122 70 71 38 26 341 345 339 338 292 258 179 152 69 40 357 337 344 313 279 242 240 243 213 208 215 220 220 223 224 227 229 228 226 222 219 217 215 213 211
165 167 156 157 122 114 101 58 1 334 11 357 321 289 224 173 159 88 52 41 17 7 1 74 250 232 253 222 195 212 222 224 227 226 227 228 230 229 225 221 219 217 214
178 174 177 177 163 217 115 96 336 340 345 14 3 328 310 348 109 145 94 55 28 14 22 41 41 1 271 245 217 191 217 228 232 230 227 229 228 229 230 228 224 221 219
184 183 188 188 204 216 153 210 89 318 310 334 76 11 354 353 309 245 178 141 88 16 12 351 14 37 351 317 59 54 15 254 242 236 230 229 228 229 230 231 229 227 224
189 191 194 196 200 213 191 227 170 285 291 324 331 328 341 272 275 291 294 300 275 281 342 316 335 337 358 350 338 45 21 328 274 254 243 234 231 230 230 232 234 233 230
191 192 198 199 205 207 194 204 208 208 288 327 315 316 307 306 307 304 296 288 296 297 308 299 280 293 313 312 22 37 16 4 329 278 253 242 238 235 235 234 235 236 235
193 187 196 198 204 202 203 206 211 235 226 235 260 284 302 304 308 304 300 303 302 290 269 254 257 280 287 300 320 7 307 5 345 323 281 253 243 239 238 236 234 235 237
198 179 192 197 201 201 204 205 223 218 223 234 248 270 275 272 282 284 294 302 298 290 263 270 286 265 302 296 348 316 273 260 324 318 302 276 258 249 246 242 239 236 236
191 184 194 198 199 201 208 214 231 226 223 234 235 225 249 261 258 270 276 284 294 299 301 279 268 272 288 295 308 293 288 274 291 290 288 283 274 262 255 251 246 243 240
195 192 197 200 200 201 206 219 225 216 227 233 244 254 256 259 257 258 262 266 271 282 290 297 291 291 309 302 279 282 280 268 256 254 262 271 273 270 262 257 254 249 245
196 201 202 203 205 206 207 215 232 222 228 234 235 236 242 259 262 263 256 259 262 267 277 284 288 286 280 282 291 285 278 272 264 225 235 256 265 266 263 259 257 254 250
201 204 206 208 211 212 212 217 227 228 231 236 238 239 244 244 244 257 262 263 264 266 271 281 286 285 279 277 276 279 277 272 274 235 222 246 257 259 260 259 257 255 254
206 209 211 214 216 217 218 221 227 232 235 238 240 241 244 246 247 250 252 260 264 262 264 274 279 283 280 276 278 273 271 267 271 262 231 235 241 247 253 254 255 253 253
206 211 215 219 221 221 223 225 227 231 236 239 241 243 245 245 246 250 250 251 258 266 264 266 272 276 274 273 269 273 274 262 263 271 268 258 240 235 243 246 248 249 250
210 213 218 222 223 225 226 226 231 233 235 241 242 243 244 244 252 252 257 257 256 259 265 267 270 274 275 278 276 278 280 282 271 265 268 266 255 247 240 235 236 239 242
213 215 220 225 226 230 206 209 234 245 242 243 246 246 246 235 233 230 241 251 257 257 262 269 271 273 276 276 276 277 279 278 278 270 268 270 268 265 260 257 235 220 229
211 217 224 228 232 233 201 205 219 242 249 249 249 249 252 249 232 241 232 228 238 242 245 255 265 269 274 272 275 273 270 274 279 285 282 275 271 267 263 259 226 221 231
216 222 228 232 236 234 205 210 215 234 249 252 250 250 251 255 249 244 249 247 245 241 235 237 249 257 262 268 266 266 273 271 267 261 259 267 270 268 268 264 234 219 231
220 225 229 235 239 240 212 212 217 242 245 249 251 251 250 252 244 228 245 253 255 254 244 234 240 249 260 262 259 262 263 264 267 266 254 258 267 269 269 266 254 221 225
228 234 235 236 240 244 222 208 213 245 252 255 253 251 245 242 245 220 239 249 254 256 259 251 232 238 246 245 233 238 251 258 264 268 264 257 263 269 271 265 260 251 236
Height
1575 1575 1575 1575 1576 1576 1576 1575 1576 1575 1575 1576 1576 1577 1577 1578 1578 1579 1580 1578 1579 1581 1582 1583 1584 1585 1586 1588 1589 1590 1592 1593 1594 1596 1597 1598 1599 1600 1601 1602 1603 1604 1605
1574 1574 1574 1574 1575 1575 1574 1574 1574 1574 1574 1574 1574 1574 1575 1576 1576 1576 1577 1577 1577 1579 1580 1581 1582 1583 1584 1586 1587 1589 1590 1592 1593 1594 1596 1597 1599 1600 1601 1602 1603 1604 1605
1573 1573 1574 1574 1574 1574 1573 1573 1573 1573 1573 1573 1573 1573 1573 1573 1574 1574 1575 1575 1576 1576 1577 1578 1580 1581 1582 1584 1585 1587 1588 1590 1591 1593 1594 1596 1597 1599 1600 1601 1602 1604 1605
1572 1573 1573 1573 1572 1573 1573 1572 1572 1573 1572 1572 1572 1572 1571 1571 1571 1572 1573 1573 1574 1575 1575 1575 1577 1578 1579 1581 1582 1583 1585 1587 1589 1591 1592 1594 1596 1597 1599 1600 1601 1603 1604
1571 1572 1572 1572 1572 1572 1572 1572 1572 1572 1572 1571 1571 1570 1570 1570 1570 1571 1571 1571 1571 1572 1573 1573 1573 1575 1576 1577 1579 1580 1582 1584 1586 1588 1590 1592 1593 1595 1597 1598 1600 1601 1602
1571 1572 1571 1571 1571 1571 1571 1570 1570 1569 1570 1570 1570 1569 1569 1569 1569 1569 1570 1570 1570 1570 1571 1571 1571 1572 1573 1574 1575 1577 1579 1581 1582 1584 1586 1588 1590 1592 1594 1596 1597 1599 1600
1570 1570 1571 1570 1570 1570 1570 1570 1570 1570 1570 1569 1569 1569 1569 1568 1568 1568 1568 1569 1569 1569 1569 1569 1569 1570 1571 1571 1572 1573 1575 1577 1578 1580 1582 1584 1587 1589 1591 1593 1594 1596 1598
1569 1570 1570 1570 1570 1569 1569 1569 1568 1570 1569 1568 1569 1568 1568 1569 1568 1568 1568 1568 1568 1568 1568 1568 1567 1568 1569 1570 1569 1571 1572 1573 1574 1576 1578 1580 1582 1585 1587 1589 1591 1593 1595
1568 1569 1569 1569 1569 1570 1569 1568 1568 1568 1569 1569 1568 1569 1568 1566 1568 1568 1567 1567 1567 1567 1567 1567 1566 1566 1567 1567 1568 1568 1569 1570 1571 1572 1574 1576 1578 1580 1582 1585 1587 1589 1591
1567 1567 1568 1568 1568 1569 1568 1568 1568 1568 1568 1569 1568 1567 1568 1568 1568 1567 1568 1567 1566 1566 1566 1566 1566 1565 1565 1566 1565 1565 1566 1567 1568 1569 1570 1572 1573 1575 1577 1579 1582 1584 1586
1565 1566 1566 1566 1566 1567 1567 1566 1566 1566 1567 1568 1568 1568 1568 1567 1568 1568 1567 1567 1566 1566 1565 1564 1564 1565 1564 1564 1564 1563 1563 1564 1565 1566 1567 1568 1569 1570 1572 1574 1576 1578 1581
1564 1564 1564 1565 1565 1566 1565 1565 1565 1565 1566 1565 1566 1567 1567 1567 1567 1567 1566 1566 1565 1565 1563 1563 1563 1563 1563 1563 1562 1560 1561 1561 1562 1562 1563 1564 1564 1565 1566 1568 1570 1572 1574
1562 1562 1563 1563 1563 1563 1563 1564 1564 1565 1565 1564 1564 1565 1566 1566 1566 1566 1566 1564 1564 1563 1562 1562 1561 1561 1561 1560 1559 1558 1558 1558 1558 1558 1559 1559 1560 1561 1562 1563 1564 1566 1568
1561 1560 1560 1561 1561 1562 1562 1562 1563 1563 1563 1563 1563 1563 1563 1564 1564 1564 1564 1564 1562 1561 1560 1560 1560 1559 1558 1558 1556 1555 1555 1554 1554 1555 1555 1555 1556 1556 1557 1558 1559 1560 1562
1558 1557 1558 1558 1559 1559 1560 1560 1562 1561 1561 1561 1562 1561 1562 1562 1562 1562 1562 1562 1562 1560 1559 1558 1558 1557 1555 1555 1553 1552 1551 1550 1550 1550 1551 1551 1551 1551 1552 1553 1554 1555 1556
1554 1555 1555 1556 1557 1557 1557 1558 1559 1559 1559 1559 1559 1559 1559 1560 1560 1559 1559 1559 1559 1559 1557 1556 1555 1555 1552 1551 1550 1548 1547 1546 1545 1546 1546 1546 1546 1546 1547 1547 1548 1549 1550
1551 1552 1553 1553 1554 1555 1555 1555 1556 1557 1556 1557 1557 1557 1556 1556 1557 1557 1556 1556 1556 1555 1554 1553 1552 1551 1548 1546 1546 1545 1544 1543 1543 1541 1540 1541 1541 1541 1541 1542 1543 1543 1544
1548 1549 1550 1550 1551 1552 1552 1552 1553 1554 1554 1554 1554 1554 1554 1554 1553 1553 1553 1553 1552 1551 1550 1549 1548 1547 1545 1543 1541 1539 1539 1539 1538 1537 1535 1535 1535 1535 1536 1536 1536 1537 1538
1545 1546 1546 1547 1548 1549 1549 1549 1550 1550 1550 1551 1551 1550 1550 1550 1549 1549 1548 1549 1548 1548 1546 1545 1544 1543 1541 1540 1538 1536 1535 1533 1533 1533 1531 1529 1529 1529 1529 1529 1530 1530 1531
1541 1542 1543 1544 1544 1545 1545 1546 1546 1546 1547 1547 1546 1546 1546 1546 1545 1545 1544 1543 1543 1543 1542 1541 1539 1538 1537 1535 1534 1532 1531 1530 1529 1528 1527 1525 1524 1522 1522 1522 1523 1523 1524
1537 1538 1539 1540 1540 1541 1542 1542 1543 1543 1542 1542 1542 1542 1541 1541 1540 1540 1540 1540 1539 1538 1538 1537 1535 1534 1533 1532 1530 1529 1527 1526 1524 1523 1522 1521 1520 1518 1517 1516 1515 1516 1517
1532 1533 1534 1536 1536 1537 1538 1537 1538 1538 1538 1537 1537 1537 1536 1535 1534 1534 1534 1533 1533 1533 1532 1531 1530 1529 1528 1527 1525 1524 1523 1521 1520 1519 1517 1515 1515 1513 1512 1512 1510 1509 1509
1527 1528 1530 1531 1531 1532 1532 1532 1532 1532 1532 1532 1531 1531 1531 1531 1529 1528 1527 1526 1526 1525 1525 1524 1523 1522 1522 1521 1520 1518 1517 1516 1514 1513 1512 1509 1509 1507 1506 1505 1504 1503 1502
1522 1523 1525 1525 1526 1526 1526 1527 1527 1526 1526 1525 1525 1524 1524 1523 1523 1522 1522 1521 1519 1518 1518 1517 1515 1514 1515 1514 1513 1512 1511 1509 1507 1506 1505 1503 1502 1501 1500 1499 1497 1495 1495
1517 1518 1519 1520 1520 1520 1520 1521 1520 1519 1519 1518 1518 1517 1517 1516 1516 1515 1515 1513 1512 1512 1511 1509 1508 1507 1507 1506 1506 1505 1504 1504 1501 1501 1500 1498 1496 1494 1493 1491 1490 1488 1487
1512 1513 1513 1513 1513 1514 1514 1514 1513 1513 1512 1512 1511 1510 1509 1508 1508 1507 1507 1506 1505 1504 1504 1503 1501 1499 1498 1497 1497 1496 1496 1496 1495 1493 1493 1492 1490 1489 1486 1485 1484 1483 1481